Regional Weather Roundup
Issued by NWS

Home | Current Version | Previous Version | Graphics & Text | Print | Product List | Glossary On
Versions: 1 2 3 4 5 6 7 8 9 10 11 12 13 14 15 16 17 18 19 20 21 22 23 24 25 26 27 28 29 30 31 32 33 34 35 36 37 38 39 40 41 42 43 44 45 46 47 48 49 50
000
ASUS45 KSLC 010910
RWRUT

UTAH REGIONAL WEATHER ROUNDUP
NATIONAL WEATHER SERVICE SALT LAKE CITY UT
300 AM MDT FRI AUG 01 2014

UTZ001>011-023>025-011000-

NORTHERN UTAH

CITY           SKY/WX    TMP DP  RH WIND       PRES   REMARKS
HILL AFB       PTCLDY    66  52  60 E13       30.16S
LOGAN          CLEAR     58  50  75 NE3       30.16S
OGDEN          PTCLDY    67  51  56 S7        30.14S
PROVO AIRPORT  MOCLDY    64  55  72 E5        30.16S
SALT LAKE CITY PTCLDY    68  54  60 S6        30.12S
VERNAL         PTCLDY    65  39  38 NW8       30.16F
WENDOVER       PTCLDY    64  45  48 W3        30.15R
HEBER CITY     MOCLDY    57  54  88 CALM      30.23F
WEST JORDAN    CLEAR     66  57  72 CALM      30.16S

$$

UTZ012>022-026-027-011000-

SOUTHERN UTAH

CITY           SKY/WX    TMP DP  RH WIND       PRES   REMARKS
BRYCE CANYON   MOCLDY    52  50  93 CALM      30.36F
CEDAR CITY     MOCLDY    57  52  83 SW7       30.21S
MILFORD        PTCLDY    58  54  86 N6        30.18R
MOAB/CYNLANDS  CLEAR     64  59  83 CALM      30.12F
PRICE          NOT AVBL
ST GEORGE      PTSUNNY   81  52  36 E15       30.05S
KANAB            N/A     64  54  68 CALM      30.22F

$$

REGIONAL REPORTS     COLORADO/ARIZONA

CITY           SKY/WX    TMP DP  RH WIND       PRES   REMARKS
CRAIG, CO      MOCLDY    54  50  86 NE7       30.24S
GRAND JUNCTION CLOUDY    69  50  50 NW15      30.14R
RIFLE          MOCLDY    64  51  62 E3        30.19S
MONTROSE       MOCLDY    67  50  54 SE9       30.22F
CORTEZ         CLEAR     65  51  60 N5        30.25F
PAGE, AZ       CLOUDY    76  49  38 VRB3      30.15F
GRAND CANYON   CLOUDY    59  52  77 CALM      30.32F
KINGMAN        PTCLDY    80  52  37 SE20      30.02F
FLAGSTAFF      MOCLDY    54  52  93 CALM      30.33F

$$

REGIONAL REPORTS    NEVADA/IDAHO/WYOMING

CITY           SKY/WX    TMP DP  RH WIND       PRES   REMARKS
LAS VEGAS, NV  MOCLDY    93  48  21 VRB6      29.86S
ELY            CLEAR     48  43  82 SW6       30.28F
ELKO           MOCLDY    57  51  80 W3        30.22S
POCATELLO, ID  CLEAR     63  50  62 N7        30.16R
BURLEY         MOCLDY    61  52  72 CALM      30.12F
EVANSTON, WY   PTCLDY    58  41  53 CALM      30.32S
ROCK SPRINGS   PTCLDY    60  34  37 N5        30.30S

$$


USA.gov is the U.S. government's official web portal to all federal, state and local government web resources and services.